FENGYUN 1C DEB, 31148

Orbit data source: Space-Track

FENGYUN 1C DEB, 31148 is space debris in SSO originally from a launch on Mon, 10 May 1999 UTC launched from the Taiyaun Space Center, China (TSC). Fengyun 1C debris stems from the Chinese weather satellite Fengyun-1C, which was intentionally destroyed by a Chinese anti-satellite missile in 2007. This event dramatically increased the amount of space debris, with thousands of trackable fragments posing hazards to satellites and human spaceflight. The Fengyun 1C debris cloud has become a focal point in discussions about space sustainability and the need for international regulations to prevent the creation of new debris.

Loading next visibility...
Identifier
31148, 1999-025BHA
Orbit
SSO
Country
Flag of CNCN / PRC
Related business
Manufacturer
Unknown
Mission
Spacecraft
Bus & Motor
Unknown
Mass
Unknown
Launch date (UTC)
1999-05-10 (27 years ago)
Launch vehicle
Unknown
Launch site
Taiyaun Space Center, China (TSC)
Object type
Payload
Rocket body
Debris
Shape & HBR
Unknown shape, 0.1 m
Radar Cross Section
Small (<0.1 m²)

Expand to show TLE details & history
Last TLE update: 2 days ago

TLE from 2 days ago
0 FENGYUN 1C DEB
1 31148U 99025BHA 26227.17373500  .00001463  00000-0  39074-3 0  9997
2 31148  98.8444 127.8651 0134897  38.5424 322.5304 14.44755605 10229
Epoch: 2026-08-15T04:10Z
TLE epoch observation values (Epoch: 2026-08-15T04:10:10.704Z)
Latitude
-0.00002°
Longitude
101.7321°
Altitude
670.005 km
Speed
7.562 km/s
True Right ascension
08h 31m 27s
True Declination
0° 00' 00"
Sunlit
Object was in daylight at epoch
Visualization orbit readout
Latitude
Unknown
Longitude
Unknown
Altitude
Unknown
Speed
Unknown
Apparent Right ascension
Unknown
Apparent Declination
Unknown
Sunlit
N/A
Visualization observer readout
Local Sidereal Time
17:07:04
Azimuth
Unknown
Elevation
Unknown
Doppler factor
Unknown
Orbital elements
Apogee altitude
835.981 km
Perigee altitude
643.939 km
Semi-major axis
7,118.097 km
Eccentricity
0.01349
Inclination
98.8444°
RAAN
127.8651°
Arg. of periapsis
38.5424°
True anomaly
321.57732°
Mean anomaly
322.5304°
Eccentric anomaly
322.05514°
Mean motion
3.61408 °/min
Orbital period
99.61 mins
BSTAR
0.00039074
Loading maneuver chart data...
Computing Atmospheric mass density...
Loading historical data...
Loading historical data...
Loading historical data...
Loading historical data...
Loading historical data...
Loading historical data...
Loading historical data...

Documentation

Showing up to 5 results
|